When you browse on this site, cookies collect data to enhance your experience and personalize the content and advertising you see.
Visit our Privacy Policy to learn more. By continuing to use the site, you agree to this use of cookies and data.
  • în România
  • Lista ţărilor
  • Pe 7 zile
  • Temperatura apei
  • Hartă satelitară
  • Meteo pe hartă
  • Widget-uri
  • user-avatar
    Intrare

    Meteo pe oră la Gulaothi

    Astăzi, 22 Februarie, Vineri

    Timp Temperatura Precipitaţii Vânt Presiune Umiditate
    00:00 +20°C° 0 mm 1 m/s 743 mmHg 72%
    01:00 +20°C° 0 mm 1 m/s 743 mmHg 73%
    02:00 +19°C° 0 mm 1 m/s 742 mmHg 74%
    03:00 +19°C° 0 mm 1 m/s 742 mmHg 76%
    04:00 +17°C° 0 mm 2 m/s 742 mmHg 78%
    05:00 +17°C° 0 mm 2 m/s 742 mmHg 80%
    06:00 +18°C° 0 mm 2 m/s 743 mmHg 79%
    07:00 +18°C° 0 mm 2 m/s 743 mmHg 78%
    08:00 +19°C° 0 mm 3 m/s 744 mmHg 76%
    09:00 +21°C° 0 mm 3 m/s 744 mmHg 70%
    10:00 +24°C° 0 mm 3 m/s 744 mmHg 64%
    11:00 +26°C° 0 mm 4 m/s 744 mmHg 58%
    12:00 +26°C° 0 mm 4 m/s 744 mmHg 56%
    13:00 +27°C° 0 mm 4 m/s 743 mmHg 53%
    14:00 +28°C° 0 mm 4 m/s 743 mmHg 51%
    15:00 +27°C° 0 mm 4 m/s 742 mmHg 55%
    16:00 +26°C° 0 mm 4 m/s 742 mmHg 59%
    17:00 +25°C° 0 mm 3 m/s 741 mmHg 63%
    18:00 +22°C° 0 mm 4 m/s 742 mmHg 63%
    19:00 +21°C° 0 mm 4 m/s 742 mmHg 63%
    20:00 +19°C° 0 mm 4 m/s 742 mmHg 62%
    21:00 +18°C° 0 mm 4 m/s 743 mmHg 67%
    22:00 +18°C° 0 mm 4 m/s 743 mmHg 72%
    23:00 +17°C° 0 mm 4 m/s 743 mmHg 76%

    Mâine, 23 Februarie, Sâmbătă

    Timp Temperatura Precipitaţii Vânt Presiune Umiditate
    00:00 +15°C° 0 mm 4 m/s 743 mmHg 78%
    01:00 +14°C° 0 mm 4 m/s 742 mmHg 79%
    02:00 +13°C° 0 mm 4 m/s 742 mmHg 80%
    03:00 +13°C° 0 mm 4 m/s 742 mmHg 82%
    04:00 +13°C° 0 mm 4 m/s 741 mmHg 84%
    05:00 +12°C° 0 mm 4 m/s 741 mmHg 85%
    06:00 +13°C° 0 mm 4 m/s 741 mmHg 82%
    07:00 +13°C° 0 mm 4 m/s 742 mmHg 79%
    08:00 +14°C° 0 mm 4 m/s 742 mmHg 75%
    09:00 +17°C° 0 mm 4 m/s 743 mmHg 68%
    10:00 +19°C° 0 mm 4 m/s 743 mmHg 62%
    11:00 +21°C° 0 mm 4 m/s 743 mmHg 55%
    12:00 +22°C° 0 mm 4 m/s 742 mmHg 51%
    13:00 +23°C° 0 mm 5 m/s 741 mmHg 48%
    14:00 +25°C° 0 mm 5 m/s 741 mmHg 45%
    15:00 +23°C° 0 mm 4 m/s 740 mmHg 49%
    16:00 +22°C° 0 mm 4 m/s 740 mmHg 54%
    17:00 +21°C° 0 mm 4 m/s 739 mmHg 58%
    18:00 +19°C° 0 mm 3 m/s 740 mmHg 60%
    19:00 +18°C° 0 mm 3 m/s 740 mmHg 62%
    20:00 +17°C° 0 mm 3 m/s 740 mmHg 64%
    21:00 +16°C° 0 mm 3 m/s 740 mmHg 67%
    22:00 +16°C° 0 mm 3 m/s 740 mmHg 71%
    23:00 +14°C° 0 mm 3 m/s 740 mmHg 75%

    Poimâine, 24 Februarie, Duminică

    Timp Temperatura Precipitaţii Vânt Presiune Umiditate
    00:00 +14°C° 0 mm 3 m/s 740 mmHg 77%
    01:00 +13°C° 0 mm 3 m/s 740 mmHg 78%
    02:00 +13°C° 0 mm 3 m/s 739 mmHg 80%
    03:00 +12°C° 0 mm 3 m/s 739 mmHg 79%
    04:00 +12°C° 0 mm 3 m/s 739 mmHg 77%
    05:00 +12°C° 0 mm 3 m/s 739 mmHg 76%
    06:00 +13°C° 0 mm 3 m/s 739 mmHg 74%
    07:00 +14°C° 0 mm 3 m/s 740 mmHg 71%
    08:00 +14°C° 0 mm 3 m/s 741 mmHg 69%
    09:00 +17°C° 0 mm 3 m/s 741 mmHg 62%
    10:00 +19°C° 0 mm 3 m/s 741 mmHg 56%
    11:00 +20°C° 0 mm 4 m/s 741 mmHg 49%
    12:00 +21°C° 0 mm 3 m/s 741 mmHg 45%
    13:00 +22°C° 0 mm 3 m/s 740 mmHg 41%
    14:00 +24°C° 0 mm 3 m/s 739 mmHg 37%
    15:00 +23°C° 0 mm 2 m/s 739 mmHg 41%
    16:00 +23°C° 0 mm 2 m/s 739 mmHg 46%
    17:00 +21°C° 0 mm 2 m/s 739 mmHg 50%
    18:00 +19°C° 0 mm 2 m/s 739 mmHg 53%
    19:00 +18°C° 0 mm 2 m/s 740 mmHg 55%
    20:00 +16°C° 0 mm 2 m/s 740 mmHg 58%
    21:00 +16°C° 0 mm 2 m/s 740 mmHg 60%
    22:00 +15°C° 0 mm 2 m/s 740 mmHg 62%
    23:00 +15°C° 0 mm 2 m/s 740 mmHg 64%

    25 Februarie, Luni

    Timp Temperatura Precipitaţii Vânt Presiune Umiditate
    00:00 +14°C° 0 mm 2 m/s 740 mmHg 66%
    01:00 +14°C° 0 mm 2 m/s 740 mmHg 67%
    02:00 +13°C° 0 mm 2 m/s 739 mmHg 69%
    03:00 +13°C° 0 mm 1 m/s 739 mmHg 70%
    04:00 +13°C° 0 mm 1 m/s 739 mmHg 71%
    05:00 +13°C° 0 mm 1 m/s 739 mmHg 73%
    06:00 +14°C° 0 mm 1 m/s 739 mmHg 71%
    07:00 +15°C° 0 mm 1 m/s 740 mmHg 69%
    08:00 +16°C° 0 mm 1 m/s 740 mmHg 67%
    09:00 +19°C° 0 mm 1 m/s 741 mmHg 59%
    10:00 +19°C° 0 mm 0 m/s 741 mmHg 52%
    11:00 +21°C° 0 mm 0 m/s 741 mmHg 44%
    12:00 +24°C° 0 mm 1 m/s 740 mmHg 41%
    13:00 +24°C° 0 mm 1 m/s 740 mmHg 38%
    14:00 +25°C° 0 mm 1 m/s 739 mmHg 35%
    15:00 +24°C° 0 mm 2 m/s 739 mmHg 41%
    16:00 +21°C° 0 mm 2 m/s 739 mmHg 47%
    17:00 +20°C° 0 mm 2 m/s 738 mmHg 53%
    18:00 +19°C° 0 mm 2 m/s 739 mmHg 51%
    19:00 +19°C° 0 mm 2 m/s 739 mmHg 48%
    20:00 +19°C° 0 mm 1 m/s 740 mmHg 46%
    21:00 +18°C° 0 mm 2 m/s 740 mmHg 46%
    22:00 +17°C° 0 mm 2 m/s 739 mmHg 46%
    23:00 +17°C° 0 mm 2 m/s 739 mmHg 46%

    26 Februarie, Marţi

    Timp Temperatura Precipitaţii Vânt Presiune Umiditate
    00:00 +16°C° 0 mm 2 m/s 739 mmHg 48%
    01:00 +16°C° 0 mm 2 m/s 738 mmHg 50%
    02:00 +16°C° 0 mm 2 m/s 738 mmHg 52%
    03:00 +15°C° 0 mm 2 m/s 738 mmHg 52%
    04:00 +15°C° 0 mm 2 m/s 738 mmHg 53%
    05:00 +15°C° 0 mm 2 m/s 738 mmHg 53%
    06:00 +14°C° 0.1 mm 3 m/s 738 mmHg 59%
    07:00 +14°C° 0.1 mm 4 m/s 738 mmHg 65%
    08:00 +14°C° 0.1 mm 4 m/s 739 mmHg 71%
    09:00 +15°C° 0.2 mm 5 m/s 739 mmHg 71%
    10:00 +16°C° 0.2 mm 5 m/s 739 mmHg 71%
    11:00 +19°C° 0.2 mm 6 m/s 739 mmHg 71%
    12:00 +19°C° 0.4 mm 6 m/s 738 mmHg 69%
    13:00 +18°C° 0.4 mm 7 m/s 737 mmHg 68%
    14:00 +18°C° 0.4 mm 7 m/s 737 mmHg 66%
    15:00 +18°C° 0.6 mm 7 m/s 736 mmHg 69%
    16:00 +17°C° 0.6 mm 7 m/s 736 mmHg 72%
    17:00 +17°C° 0.6 mm 7 m/s 735 mmHg 76%
    18:00 +16°C° 0.7 mm 7 m/s 735 mmHg 80%
    19:00 +15°C° 0.7 mm 7 m/s 735 mmHg 85%
    20:00 +15°C° 0.7 mm 7 m/s 736 mmHg 89%
    21:00 +14°C° 1.1 mm 7 m/s 736 mmHg 90%
    22:00 +14°C° 1.1 mm 7 m/s 736 mmHg 91%
    23:00 +14°C° 1.1 mm 7 m/s 736 mmHg 91%

    27 Februarie, Miercuri

    Timp Temperatura Precipitaţii Vânt Presiune Umiditate
    00:00 +14°C° 0.9 mm 7 m/s 735 mmHg 92%
    01:00 +12°C° 0.9 mm 7 m/s 735 mmHg 92%
    02:00 +12°C° 0.9 mm 8 m/s 735 mmHg 92%
    03:00 +12°C° 1 mm 7 m/s 735 mmHg 92%
    04:00 +12°C° 1 mm 7 m/s 735 mmHg 92%
    05:00 +12°C° 1 mm 7 m/s 735 mmHg 93%
    06:00 +13°C° 1.2 mm 6 m/s 736 mmHg 92%
    07:00 +13°C° 1.2 mm 6 m/s 737 mmHg 91%
    08:00 +14°C° 1.2 mm 6 m/s 738 mmHg 90%
    09:00 +14°C° 0.3 mm 5 m/s 738 mmHg 89%
    10:00 +14°C° 0.3 mm 4 m/s 738 mmHg 87%
    11:00 +14°C° 0.3 mm 3 m/s 738 mmHg 86%
    12:00 +17°C° 0.6 mm 3 m/s 738 mmHg 79%
    13:00 +18°C° 0.6 mm 3 m/s 738 mmHg 72%
    14:00 +19°C° 0.6 mm 4 m/s 737 mmHg 64%
    15:00 +18°C° 0.7 mm 3 m/s 738 mmHg 68%
    16:00 +18°C° 0.7 mm 2 m/s 738 mmHg 71%
    17:00 +17°C° 0.7 mm 2 m/s 738 mmHg 75%
    18:00 +16°C° 0.2 mm 1 m/s 739 mmHg 78%
    19:00 +15°C° 0.2 mm 1 m/s 739 mmHg 82%
    20:00 +13°C° 0.2 mm 1 m/s 739 mmHg 85%
    21:00 +13°C° 0 mm 1 m/s 740 mmHg 86%
    22:00 +13°C° 0 mm 1 m/s 740 mmHg 87%
    23:00 +12°C° 0 mm 1 m/s 740 mmHg 88%
    Arată mai mult